Weather History for Sheridan, WY

Change the Weather History Date:

Friday, January 4, 2013

  Actual Average Record
Temperature  
Mean Temperature 25 °F 23 °F  
Max Temperature 44 °F 36 °F 59 °F (1948)
Min Temperature 6 °F 11 °F -30 °F (1972)
Degree Days  
Heating Degree Days 40 42  
Month to date heating degree days 175 168  
Since 1 July heating degree days 3130 3351  
Cooling Degree Days 0 0  
Month to date cooling degree days 0 0  
Year to date cooling degree days 0 0  
Moisture  
Dew Point 10 °F    
Average Humidity 58    
Maximum Humidity 80    
Minimum Humidity 36    
Precipitation  
Precipitation 0.00 in 0.02 in 0.18 in (1916)
Month to date precipitation T 0.07  
Year to date precipitation T 0.07  
Sea Level Pressure  
Sea Level Pressure 30.21 in    
Wind  
Wind Speed 3 mph (WSW)    
Max Wind Speed 15 mph    
Max Gust Speed 18 mph    
Visibility 10 miles    
Events      
T = Trace of Precipitation, MM = Missing Value Source: NWS Daily Summary

Daily Weather History Graph

Daily Weather History Graph

Search for Another Location

Airport:

Trip Planner

Search our weather history database for the weather conditions in past years. The results will help you decide how hot, cold, wet, or windy it might be!

Date:

Astronomy

Jan. 04, 2013 Rise Set
Actual Time 7:45 AM MST 4:41 PM MST
Civil Twilight 7:11 AM MST 5:14 PM MST
Nautical Twilight 6:35 AM MST 5:51 PM MST
Astronomical Twilight 5:59 AM MST 6:26 PM MST
Moon No Moon Rise 11:09 AM MST (1/4)
Length of Visible Light 10h 02m
Length of Day
8h 55m
Waning Gibbous, 54% of the Moon is Illuminated
Jan 4
Waning Gibbous
Jan 4
Last Quarter
Jan 11
New
Jan 18
First Quarter
Jan 26
Full

Hourly Weather History & Observations

Time (MST) Temp. Windchill Dew Point Humidity Pressure Visibility Wind Dir Wind Speed Gust Speed Precip Events Conditions
12:53 AM 14.0 °F - 5.0 °F 67% 30.23 in 10.0 mi Calm Calm - N/A   Clear
1:53 AM 15.1 °F 9.4 °F 5.0 °F 64% 30.20 in 10.0 mi North 3.5 mph - N/A   Clear
2:53 AM 12.9 °F - 5.0 °F 71% 30.22 in 10.0 mi Calm Calm - N/A   Clear
3:53 AM 14.0 °F - 3.9 °F 64% 30.21 in 10.0 mi Calm Calm - N/A   Clear
4:53 AM 8.6 °F - 1.4 °F 73% 30.04 in 10.0 mi Calm Calm - N/A   Clear
5:53 AM 9.0 °F 0.6 °F 3.0 °F 77% 30.23 in 10.0 mi South 4.6 mph - N/A   Clear
6:53 AM 9.0 °F -2.2 °F 3.0 °F 77% 30.23 in 10.0 mi North 6.9 mph - N/A   Clear
7:53 AM 10.9 °F - 3.9 °F 73% 30.28 in 10.0 mi Calm Calm - N/A   Clear
8:53 AM 12.0 °F 0.5 °F 6.1 °F 77% 30.28 in 10.0 mi South 8.1 mph - N/A   Clear
9:53 AM 21.9 °F - 10.0 °F 60% 30.27 in 10.0 mi Calm Calm - N/A   Clear
10:53 AM 28.9 °F 23.9 °F 15.1 °F 56% 30.23 in 10.0 mi SSW 4.6 mph - N/A   Clear
11:53 AM 37.0 °F - 16.0 °F 42% 30.19 in 10.0 mi Calm Calm - N/A   Clear
12:53 PM 39.9 °F - 18.0 °F 41% 30.17 in 10.0 mi Calm Calm - N/A   Clear
1:53 PM 39.0 °F 36.8 °F 18.0 °F 43% 30.16 in 10.0 mi South 3.5 mph - N/A   Clear
2:53 PM 43.0 °F 39.5 °F 17.1 °F 35% 30.16 in 10.0 mi NW 5.8 mph - N/A   Clear
3:53 PM 34.0 °F 29.8 °F 19.0 °F 54% 30.19 in 10.0 mi WNW 4.6 mph - N/A   Clear
4:53 PM 27.0 °F 20.5 °F 12.9 °F 56% 30.24 in 10.0 mi NW 5.8 mph - N/A   Clear
5:53 PM 23.0 °F 18.4 °F 12.2 °F 63% 30.08 in 10.0 mi WSW 3.5 mph - N/A   Clear
6:53 PM 19.9 °F 14.9 °F 10.9 °F 68% 30.26 in 10.0 mi SSW 3.5 mph - N/A   Clear
7:53 PM 21.0 °F 16.2 °F 10.9 °F 65% 30.25 in 10.0 mi North 3.5 mph - N/A   Clear
8:53 PM 21.0 °F - 9.0 °F 60% 30.25 in 10.0 mi Calm Calm - N/A   Clear
9:53 PM 19.9 °F 13.4 °F 8.1 °F 60% 30.23 in 10.0 mi WSW 4.6 mph - N/A   Clear
10:53 PM 25.0 °F 17.1 °F 10.0 °F 53% 30.22 in 10.0 mi WNW 6.9 mph - N/A   Clear
11:53 PM 21.0 °F 14.6 °F 9.0 °F 60% 30.22 in 10.0 mi South 4.6 mph - N/A   Clear